SCP
0 0 0 0 0 0 0 0 0 0 0 0 0 0 0 0 0 0 0 0 0 0 0 0 0 0 0 0 0 0 -0 0 0 0 0 0 0 0 0 0 0 0 0 0 0 0 0 0 0 0 0 0 0 0
0 0 0 0 0 0 0 0 0 0 0 0 0 0 0 0 0 0 0 0 0 0 0 0 0 0 -0 -0 -0 -0 -0 0 0 0 0 0 0 0 0 0 0 0 0 0 0 0 0 0 0 0 0 0 0 0
0 0 0 0 0 0 0 0 0 0 0 0 0 0 0 0 0 0 0 0 0 0 0 0 0 0 -0 -0 -0 -0 0 0 0 0 0 0 0 0 0 0 0 0 0 0 0 0 0 0 0 0 0 0 -0 0
0 0 0 0 0 0 0 0 0 0 0 0 0 0 0 0 0 0 0 0 0 0 0 0 0 0 -0 -0 -0 -0 0 0 0 0 0 0 0 0 0 0 0 0 0 0 0 0 0 0 0 0 0 0 0 0
0 0 0 0 0 0 0 0 0 0 0 0 0 0 0 0 0 0 0 0 0 0 0 0 -0 -0 0 -0 -0 -0 0 0 0 0 0 0 0 0 0 0 -0 0 0 0 0 0 0 0 0 0 0 0 0 0
0 0 0 0 0 0 0 0 0 0 0 0 0 0 -0 0 0 0 0 0 0 0 0 0 -0 -0 0 0 0 0 0 0 0 0 0 0 0 0 0 0 0 0 0 0 0 0 0 -0 -0 -0 -0 0 0 0
0 0 0 0 0 0 0 0 0 0 0 0 0 -0 0 0 0 0 0 0 0 -0 0 -0 -0 0 0 0 0 0 0 0 0 0 0 0 0 0 0 0 0 0 0 0 0 -0 0 0 -0 0 -0 -0 -0 0
0 0 0 0 0 0 0 0 0 0 0 0 0 -0 0 0 0 0 0 -0 0 0 0 -0 -0 -0 -0 -0 -0 -0 0 0 0 0 0 0 0 0 0 0 0 0 0 0 0 -0 -0 0 0 -0 0 -0 -0 0
0 0 0 0 0 0 0 0 0 0 0 0 -0 0 0 0 0 0 0 0 0 0 0 -0 0 0 -0 -0 0 0 0 0 0 0 0 0 0 0 0 0 0 0 0 -0 0 0 -0 0 0 0 0 -0 -0 -0
0 0 0 0 0 0 0 0 0 0 0 0 0 0 0 0 -0 0 0 0 0 0 -0 -0 -0 -0 0 0 0 0 0 0 0 0 0 0 0 0 0 0 0 0 0 0 0 0 0 -0 0 0 -0 -0 -0 -0
0 0 0 0 0 0 0 0 0 0 0 0 0 0 0 -0 0 0 -0 -0 0 0 -0 0 -0 -0 0 0 0 0 0 0 0 0 0 0 0 0 0 0 0 0 0 0 0 0 0 0 0 -0 -0 -0 0 -0
0 0 0 0 0 0 0 0 0 0 0 0 0 0 -0 -0 0 -0 0 0 0 0 -0 0 0 0 0 0 0 0 0 0 0 0 0 0 0 0 0 0 0 0 0 0 0 0 0 -0 -0 0 0 -0 0 -0
0 0 0 0 0 0 0 0 0 0 0 0 0 0 -0 0 -0 -0 -0 0 0 0 -0 -0 0 0 0 0 0 0 0 0 0 0 0 0 0 0 0 0 0 0 0 0 0 0 0 0 0 0 0 0 0 -0
0 0 0 0 0 0 -0 0 0 0 0 0 0 0 0 0 -0 -0 0 0 0 0 0 0 0 0 0 0 0 0 0 0 0 0 0 0 0 0 0 0 0 0 0 0 0 0 0 0 0 0 0 0 0 0
0 0 0 -0 0 -0 0 -0 -0 0 0 0 0 0 -0 0 0 0 0 0 0 0 0 0 0 0 0 0 0 0 0 0 0 0 0 0 0 0 0 0 0 0 0 0 0 0 0 0 0 0 0 0 0 0
0 0 0 0 0 0 0 0 0 0 0 0 0 0 0 0 0 0 0 0 0 0 0 0 0 0 0 0 0 0 0 -0 -0 0 0 0 0 0 0 0 0 0 0 0 0 0 0 0 0 0 0 -0 -0 -0
0 0 0 0 -0 0 -0 -0 0 0 0 0 0 0 0 0 0 0 0 0 0 0 0 0 0 0 0 0 0 0 -0 0 0 0 -0 -0 -0 -0 0 0 0 0 -0 -0 -0 -0 -0 0 0 0 0 0 -0 -0
0 0 -0 -0 0 0 0 0 0 0 0 0 0 0 0 0 0 0 0 0 0 0 0 0 0 0 0 0 0 0 -0 0 0 0 -0 -0 -0 0 0 0 0 0 0 0 -0 -0 0 -0 -0 0 0 0 0 0
0 -0 -0 -0 0 0 0 0 0 0 0 0 0 0 0 0 0 0 0 0 0 0 0 0 0 0 0 0 0 0 -0 0 0 -0 0 0 0 0 -0 0 0 0 -0 0 0 0 0 0 -0 -0 -0 0 0 0
-0 -0 -0 -0 0 -0 -0 -0 -0 0 0 0 0 0 0 0 0 0 -0 0 0 0 0 0 0 0 0 0 0 0 -0 -0 0 -0 -0 -0 -0 0 0 0 0 0 -0 -0 0 0 0 0 0 -0 -0 0 0 0
-0 -0 -0 0 -0 -0 -0 0 0 0 0 0 0 0 0 0 0 0 0 0 0 0 0 0 0 0 0 0 0 -0 -0 -0 -0 0 0 0 -0 0 0 0 0 0 0 -0 -0 -0 -0 0 0 0 0 0 0 0
-0 -0 -0 -0 0 0 0 0 0 0 0 0 0 0 0 0 0 0 0 0 0 0 0 0 0 0 -0 0 0 -0 -0 -0 -0 -0 -0 0 0 0 0 0 0 0 0 0 0 -0 -0 -0 -0 0 0 0 0 0
0 0 0 0 -0 0 0 0 0 0 0 0 0 0 0 0 0 0 0 0 0 0 0 0 0 0 0 0 0 0 0 0 0 -0 0 0 0 0 0 0 0 0 0 0 0 0 -0 -0 -0 0 0 0 -0 0
0 0 0 0 0 0 0 0 0 0 0 0 0 0 0 0 0 0 0 0 0 0 0 0 0 0 0 0 0 0 0 -0 -0 -0 -0 0 0 0 0 0 0 0 0 0 0 0 0 -0 -0 -0 -0 -0 -0 -0
-0 -0 0 0 0 0 0 0 0 0 0 0 0 0 0 0 0 0 0 0 0 0 0 0 0 0 0 0 0 0 0 0 -0 0 0 0 0 0 0 0 0 0 0 0 0 0 0 0 0 0 -0 -0 -0 -0
0 0 0 0 0 0 0 0 0 0 0 0 0 0 0 0 0 0 0 0 0 0 0 0 0 0 0 0 0 0 0 0 0 0 0 -0 -0 0 0 0 0 0 0 0 0 0 0 0 0 -0 0 -0 0 0
0 0 0 0 0 0 0 0 0 0 0 0 0 0 0 0 0 0 0 0 0 0 0 0 0 -0 -0 0 0 0 0 0 0 0 -0 -0 -0 -0 0 0 0 0 0 0 0 0 0 0 0 0 -0 -0 -0 -0
0 0 0 0 0 0 0 0 0 0 0 0 -0 0 0 0 0 0 0 0 0 0 0 0 0 0 0 0 0 0 0 -0 0 0 0 0 -0 -0 0 0 0 0 0 0 0 -0 0 0 -0 -0 -0 0 -0 -0
0 0 0 0 0 0 0 0 0 0 0 -0 0 0 0 0 0 0 0 0 0 0 0 0 0 0 0 0 0 0 0 0 0 -0 -0 0 0 0 -0 0 0 0 0 0 -0 -0 -0 -0 -0 -0 -0 -0 -0 -0
0 0 0 0 0 0 0 0 0 0 0 0 0 0 0 0 0 0 0 0 0 0 0 0 0 0 0 0 0 0 0 0 0 0 0 0 -0 -0 0 0 0 -0 -0 -0 -0 -0 -0 -0 -0 -0 -0 -0 -0 -0
0 0 0 0 0 0 0 0 0 0 0 0 0 0 0 0 0 0 0 0 0 0 0 0 0 0 0 0 0 0 0 0 0 0 0 0 0 0 0 0 -0 0 -0 -0 -0 -0 -0 -0 -0 0 -0 -0 -0 -0
0 0 0 0 0 0 0 0 0 0 0 0 0 0 0 0 0 0 0 0 0 0 0 0 0 0 0 0 0 0 0 0 0 0 0 0 0 0 -0 -0 -0 0 0 0 0 -0 -0 -0 -0 -0 -0 -0 -0 -0
0 0 0 0 0 0 0 0 0 0 0 0 0 0 0 0 0 0 0 0 0 0 0 0 0 0 0 0 0 0 0 0 0 0 0 0 0 0 0 -0 0 0 0 0 0 0 -0 -0 -0 -0 -0 -0 -0 -0
Wind_Speed_500mb
65 59 58 53 47 46 45 40 38 36 35 32 29 26 26 27 19 17 23 24 25 23 47 56 51 48 36 25 13 9 14 5 4 2 5 6 6 8 3 9 9 14 8 8 6 9 23 27 7 18 22 6 10 21
64 59 57 53 47 44 42 37 35 33 30 23 19 24 30 27 23 18 30 23 32 37 53 75 80 74 58 51 29 18 17 9 4 5 1 1 5 4 7 21 15 15 20 9 17 14 9 12 14 27 18 35 31 39
61 58 56 50 46 42 38 34 32 29 24 19 17 23 24 25 26 21 28 32 37 31 58 33 21 22 32 40 37 46 33 41 26 36 13 9 16 5 9 10 12 12 28 12 9 23 45 73 75 69 76 81 79 60
58 54 52 44 40 33 35 35 32 27 26 26 19 22 24 22 24 22 30 33 37 26 13 19 20 38 46 37 36 48 61 37 37 34 17 8 9 21 10 14 17 23 8 21 34 36 54 63 61 66 68 65 60 62
54 50 42 31 32 35 31 27 27 27 25 19 23 26 27 22 28 29 33 41 33 24 10 37 73 11 8 28 34 40 61 72 42 17 12 10 11 15 12 9 29 33 37 22 26 32 33 43 52 49 48 52 55 49
42 33 25 30 30 32 35 32 27 26 28 26 23 26 25 22 27 28 10 5 2 12 9 9 25 30 17 25 23 29 40 53 40 18 12 17 40 16 7 10 29 26 37 47 47 56 57 61 61 62 62 65 62 55
25 25 29 32 36 37 38 33 30 32 29 24 27 30 25 24 25 20 10 9 27 24 13 15 19 15 28 18 9 8 10 27 31 18 16 12 15 24 6 16 44 49 50 48 54 54 37 34 33 48 33 44 43 41
28 30 32 39 45 44 43 41 39 35 32 28 28 30 24 24 30 36 20 8 16 19 9 6 8 18 14 12 12 8 6 9 9 7 7 9 8 7 7 13 51 69 73 64 61 63 68 56 56 45 38 44 48 44
35 39 48 45 32 26 28 25 20 30 35 30 27 25 30 14 9 6 2 7 9 5 5 8 6 7 19 10 11 8 9 3 3 3 6 5 1 5 14 42 64 70 51 65 66 43 38 28 29 34 41 39 38 30
45 35 25 23 24 29 21 17 12 11 10 12 16 8 5 2 5 6 3 6 11 9 11 10 12 8 11 9 9 10 6 4 4 4 6 4 5 17 37 59 59 62 59 54 24 13 14 20 21 21 10 14 11 15
23 21 25 25 26 19 14 15 15 9 6 6 7 7 5 2 4 4 5 7 10 7 12 14 22 10 11 6 4 5 5 4 5 4 4 5 4 22 62 60 58 63 61 47 36 25 13 11 13 11 12 17 20 21
19 19 17 18 18 12 15 16 18 16 10 10 5 11 4 5 4 0 4 4 7 7 10 9 16 21 9 7 3 5 4 6 7 14 4 7 8 49 55 58 57 56 61 62 59 46 34 25 20 17 19 29 31 24
18 17 16 18 18 20 17 13 20 17 15 8 5 2 5 2 6 7 7 5 3 7 8 11 10 4 4 3 4 1 4 6 20 5 5 4 33 60 52 46 45 51 53 53 49 47 43 38 36 40 47 33 14 13
20 18 17 20 23 16 14 22 17 21 12 6 8 7 6 6 8 9 8 6 15 22 32 31 14 7 5 3 2 4 5 4 5 6 5 7 40 54 52 35 39 44 50 49 48 51 44 40 39 40 45 46 37 29
17 17 19 22 20 23 27 20 25 22 9 7 8 7 11 18 15 7 24 24 37 43 31 12 8 9 4 3 3 4 8 4 4 4 4 35 56 44 32 46 31 32 42 47 45 39 41 44 43 44 50 41 45 46
12 15 4 3 14 24 25 18 24 17 6 6 10 8 16 5 15 18 26 40 30 18 6 6 3 1 2 2 1 3 2 5 5 4 32 43 42 38 34 22 36 29 31 39 42 41 36 37 39 39 33 38 44 54
9 7 4 4 18 23 20 14 8 10 8 8 12 24 33 30 28 39 26 37 19 8 2 1 2 1 2 2 2 2 3 3 19 34 33 38 43 36 28 21 14 16 21 25 32 39 43 45 37 29 31 32 31 32
10 12 5 8 22 27 27 17 8 7 11 18 14 17 21 30 37 40 24 17 12 7 8 4 3 3 1 1 4 3 9 21 23 25 35 35 25 25 15 16 10 9 15 19 20 21 25 32 40 38 32 27 26 29
9 9 8 12 23 20 13 10 10 7 21 16 24 34 29 30 33 26 16 16 12 6 4 5 3 2 3 4 7 22 17 17 30 32 29 25 15 19 22 10 15 12 15 14 12 16 13 19 27 30 27 25 33 38
10 8 12 18 21 11 7 8 12 10 9 6 15 17 14 18 21 15 15 8 10 4 1 1 2 5 9 18 22 21 16 20 23 24 23 28 26 18 20 19 14 11 10 17 9 9 4 4 12 16 21 23 31 36
12 9 15 12 5 12 8 7 13 9 11 10 19 18 12 10 8 5 7 13 5 1 3 6 14 13 8 6 8 10 12 13 12 14 18 22 19 12 8 14 13 6 10 14 17 17 13 8 8 8 15 27 31 33
12 18 8 8 7 6 11 10 8 7 8 12 14 8 9 5 5 6 12 5 6 3 3 8 10 9 6 3 8 8 6 1 4 9 12 4 14 16 12 14 6 12 11 15 16 21 22 17 14 19 24 30 29 31
23 16 6 8 7 7 11 9 8 6 3 6 6 4 4 4 3 10 4 5 5 1 4 6 11 6 12 22 22 21 6 5 3 7 9 8 11 14 15 17 12 5 7 11 17 21 25 29 28 28 34 37 34 28
16 9 5 6 11 8 7 7 8 7 6 4 3 5 2 4 7 3 3 7 7 2 5 4 11 11 19 19 25 29 25 17 15 8 6 9 11 8 9 12 9 4 1 4 5 13 20 27 26 29 29 30 24 27
8 7 6 9 10 7 6 6 7 4 6 7 5 2 5 3 3 4 6 13 21 10 7 5 10 13 17 14 8 19 21 17 6 5 6 8 18 17 14 9 4 5 5 4 6 19 15 21 18 19 21 20 25 24
7 9 14 8 6 7 6 4 8 11 5 4 3 2 5 3 3 4 5 21 25 16 18 11 11 8 5 9 8 10 16 21 16 11 12 17 25 31 31 18 8 9 4 7 13 17 15 21 20 26 29 29 26 24
5 8 14 13 10 9 8 11 10 3 5 3 5 2 4 5 5 3 9 15 16 17 20 9 4 6 8 10 6 6 12 16 16 19 13 15 22 37 36 20 17 13 9 10 14 17 22 21 21 20 22 21 19 26
10 8 7 2 5 9 5 6 4 4 4 4 15 3 3 3 6 5 5 10 10 25 21 16 10 4 8 5 3 7 17 23 20 13 7 8 17 29 39 25 18 17 13 20 24 23 19 19 20 20 16 22 37 23
9 10 7 13 10 9 12 10 6 5 0 1 4 6 9 3 4 6 11 15 23 19 15 14 10 4 3 4 7 6 5 29 22 17 15 14 11 20 27 31 26 20 22 24 21 23 28 26 28 28 24 24 20 18
11 15 6 7 7 8 8 13 8 4 4 3 8 8 8 8 8 10 13 19 18 16 12 9 6 7 6 5 8 11 16 22 21 16 13 15 9 10 10 15 23 25 27 30 27 25 25 27 29 29 24 22 18 16
7 14 10 9 7 10 15 8 8 10 4 4 5 6 11 10 13 8 14 15 16 11 9 8 3 11 10 9 4 2 4 1 7 10 7 7 8 6 1 3 10 16 24 23 21 22 19 16 16 18 16 14 15 18
12 17 10 5 8 8 6 8 9 8 8 6 4 5 5 5 6 14 23 24 22 15 9 10 11 10 5 4 3 6 9 12 12 9 11 9 10 14 6 4 12 13 13 13 13 13 12 11 11 11 13 14 16 20
18 20 14 7 5 4 9 9 6 4 5 6 7 9 7 9 5 7 22 21 18 16 12 8 9 6 4 8 4 3 4 3 6 11 15 13 15 14 10 7 3 10 19 19 14 12 11 9 8 13 21 18 16 12
Wind_Direction_500mb
291 288 291 294 295 298 303 305 306 307 310 315 318 325 333 326 309 266 283 283 284 269 278 271 266 263 261 252 257 278 335 262 41 114 163 248 206 241 238 214 204 190 218 211 225 223 276 221 183 189 215 165 292 284
287 284 287 290 291 296 300 300 301 302 305 308 321 327 329 319 319 277 275 295 300 278 272 285 281 267 255 248 241 222 238 257 246 82 329 255 299 271 232 271 225 255 208 219 193 217 239 222 236 254 286 298 301 289
283 282 285 288 291 296 296 296 299 298 300 300 312 323 318 320 315 282 282 294 293 290 300 284 276 306 280 250 254 244 250 235 247 256 260 227 242 216 247 237 240 242 235 236 265 227 247 260 264 259 260 269 281 279
279 278 281 284 293 295 293 295 301 301 299 298 303 306 302 310 310 292 292 296 298 288 277 286 302 283 290 265 248 251 251 239 244 238 229 232 236 208 242 252 249 249 223 235 249 265 272 265 257 262 267 270 269 267
275 277 277 288 297 297 297 295 292 296 295 291 297 295 297 300 310 297 302 297 278 244 288 295 306 347 274 281 251 252 250 245 239 229 216 242 239 250 238 246 261 253 252 249 258 259 257 264 268 272 265 265 265 264
274 273 285 295 297 285 285 290 279 279 282 290 297 301 295 295 303 312 321 208 73 29 274 302 302 302 328 318 277 251 240 244 222 211 243 242 247 230 253 252 272 284 272 265 269 271 277 274 274 276 270 267 268 263
263 278 281 288 278 280 283 275 269 274 280 281 290 290 286 288 282 271 266 291 303 311 331 299 304 290 332 342 323 296 256 213 210 209 215 242 250 205 245 265 297 306 304 287 269 260 256 255 267 296 282 261 266 256
270 274 280 273 277 279 281 276 264 264 268 272 278 291 292 288 278 280 297 270 250 262 225 276 276 308 351 315 319 305 225 234 228 251 253 244 268 234 272 307 319 311 309 301 282 264 260 263 278 260 269 273 268 248
284 277 275 277 283 282 284 285 292 271 267 264 270 290 294 277 241 88 116 301 238 213 231 241 274 272 334 314 299 317 353 283 266 248 252 274 280 254 298 317 315 316 307 310 309 297 262 253 253 266 281 262 255 242
276 274 278 277 281 276 286 269 258 282 283 239 266 270 246 239 216 306 308 194 197 228 224 242 240 268 320 335 307 317 333 298 285 256 265 235 259 275 319 325 325 326 336 345 333 327 282 274 258 267 262 226 200 188
277 282 276 272 277 292 261 271 248 263 218 216 194 221 200 209 273 210 219 212 195 243 226 241 230 241 271 243 272 331 328 303 292 316 312 317 303 330 335 341 350 1 17 34 26 24 353 312 258 236 252 249 261 242
278 276 281 290 280 273 270 269 217 208 184 194 207 288 276 205 180 27 261 269 222 239 221 212 255 221 251 243 279 334 308 349 269 341 292 343 318 341 352 356 11 26 33 38 46 52 49 36 18 358 315 274 247 228
276 270 278 286 288 262 255 233 196 196 203 233 237 253 219 151 42 206 217 249 273 252 238 299 295 232 187 239 261 306 305 249 312 334 18 303 317 348 1 13 30 31 39 44 41 43 53 59 59 56 49 55 108 193
273 275 272 275 285 241 206 176 190 180 175 172 176 214 213 208 235 201 201 219 253 253 275 291 267 219 210 200 207 261 261 269 352 10 333 294 327 348 3 11 22 22 28 33 42 47 53 51 52 50 60 71 78 85
274 277 287 282 257 197 181 196 185 177 175 194 221 231 220 229 247 243 271 261 270 273 277 270 233 181 199 236 221 279 352 13 31 302 272 307 330 347 0 14 10 18 29 33 35 40 48 48 53 59 58 69 72 83
281 297 211 320 185 182 184 178 181 171 205 229 235 258 248 273 276 267 260 264 300 276 239 230 276 235 217 238 134 18 29 236 258 246 308 320 329 343 349 1 33 37 45 41 37 41 46 46 50 56 66 65 68 69
275 272 245 217 177 182 194 199 141 188 214 234 249 246 259 279 280 285 300 303 295 256 197 201 335 279 249 258 137 205 237 257 291 313 321 320 328 340 331 340 346 33 55 55 50 47 50 49 50 58 67 70 76 82
251 225 210 112 167 174 178 191 191 224 242 242 248 262 249 260 272 281 290 305 259 247 160 214 136 3 160 242 270 235 283 308 323 327 324 336 349 11 340 342 321 352 32 38 46 47 38 40 46 49 55 68 87 94
220 197 200 171 170 168 181 202 215 257 236 249 260 268 276 279 287 286 257 268 263 261 191 196 121 228 237 257 297 304 300 310 323 339 356 10 359 353 350 326 14 355 329 326 332 355 8 32 43 44 56 78 92 103
214 228 181 194 186 183 226 213 207 249 261 262 274 270 255 267 292 278 243 232 230 220 177 0 171 245 267 280 279 265 294 315 327 340 15 30 19 45 53 61 40 357 15 15 40 28 355 12 38 51 57 87 103 105
214 215 181 191 187 215 276 246 212 244 280 262 281 289 279 265 253 225 176 176 181 95 163 225 271 278 282 245 258 278 292 313 305 296 327 350 9 2 3 14 349 50 52 57 60 54 33 46 53 87 97 111 103 109
173 161 182 229 205 246 263 244 240 259 255 267 290 242 263 271 237 168 165 145 131 140 254 265 271 289 208 291 28 39 42 0 303 341 349 45 31 29 20 1 0 10 39 51 50 43 52 48 56 128 124 120 107 110
163 174 181 197 209 238 265 230 240 246 230 261 285 265 255 256 197 164 112 103 117 233 264 339 59 193 55 104 82 44 4 170 74 40 39 13 1 5 11 8 345 313 24 81 57 50 66 65 90 110 125 121 112 105
163 183 214 217 217 261 255 233 224 252 255 267 247 262 228 260 171 193 126 139 164 151 329 73 96 88 78 105 56 49 56 102 111 89 57 9 344 344 6 15 8 348 258 183 65 80 78 84 98 114 119 122 111 110
202 221 201 248 221 243 237 220 215 220 243 219 218 232 317 313 180 206 187 181 175 192 198 153 121 97 97 110 61 57 71 70 84 130 31 349 16 28 355 343 39 348 165 154 61 135 110 103 109 124 94 132 143 118
236 209 192 221 225 201 245 256 205 213 222 243 112 98 276 266 246 214 196 182 188 185 156 147 137 125 95 78 126 109 99 92 89 99 65 56 43 22 12 21 57 68 110 45 91 140 129 124 114 106 108 104 122 123
271 254 225 235 257 279 285 280 262 213 249 200 111 224 225 215 226 221 154 176 195 186 172 141 118 325 287 246 209 152 131 142 126 103 78 56 44 27 25 63 69 56 76 97 119 122 129 133 134 128 115 114 125 127
249 273 219 299 255 253 246 289 273 252 251 159 139 54 342 298 230 152 167 173 175 162 164 166 173 61 49 126 147 159 163 157 154 150 160 81 58 41 38 55 38 52 98 112 117 123 129 140 148 141 123 118 130 120
243 246 236 273 262 244 219 217 252 254 19 36 128 145 202 231 163 164 160 158 168 173 178 182 187 163 88 126 68 95 164 183 179 163 153 136 91 59 46 44 50 74 117 125 117 99 92 105 130 140 131 122 116 122
245 229 237 260 202 221 236 212 257 209 170 129 139 141 159 147 139 146 168 170 175 164 158 159 185 200 181 145 85 94 106 135 154 174 144 146 124 72 61 60 51 83 111 124 117 114 108 112 126 131 127 127 125 117
262 185 224 241 268 273 252 226 208 173 150 143 142 174 168 167 175 198 195 190 178 169 173 182 191 172 184 201 204 46 52 280 203 199 197 173 185 164 80 82 119 99 108 120 123 126 126 122 139 159 163 147 134 133
203 212 208 235 249 221 236 230 220 214 179 194 182 162 161 203 236 214 197 199 201 206 192 189 195 184 177 176 240 308 287 249 245 252 235 241 208 187 177 119 189 179 149 114 132 132 131 126 127 129 149 149 145 140
211 221 223 269 255 242 201 174 173 169 185 199 216 217 184 183 236 185 182 191 195 192 197 213 204 224 307 323 294 325 338 300 219 214 199 186 177 183 180 164 177 214 217 212 185 153 146 147 141 132 135 146 151 148
Wind_Speed_850mb
65 59 58 53 47 46 45 40 38 36 35 32 29 26 26 27 19 17 23 24 25 23 47 56 51 48 36 25 13 9 14 5 4 2 5 6 6 8 3 9 9 14 8 8 6 9 23 27 7 18 22 6 10 21
64 59 57 53 47 44 42 37 35 33 30 23 19 24 30 27 23 18 30 23 32 37 53 75 80 74 58 51 29 18 17 9 4 5 1 1 5 4 7 21 15 15 20 9 17 14 9 12 14 27 18 35 31 39
61 58 56 50 46 42 38 34 32 29 24 19 17 23 24 25 26 21 28 32 37 31 58 33 21 22 32 40 37 46 33 41 26 36 13 9 16 5 9 10 12 12 28 12 9 23 45 73 75 69 76 81 79 60
58 54 52 44 40 33 35 35 32 27 26 26 19 22 24 22 24 22 30 33 37 26 13 19 20 38 46 37 36 48 61 37 37 34 17 8 9 21 10 14 17 23 8 21 34 36 54 63 61 66 68 65 60 62
54 50 42 31 32 35 31 27 27 27 25 19 23 26 27 22 28 29 33 41 33 24 10 37 73 11 8 28 34 40 61 72 42 17 12 10 11 15 12 9 29 33 37 22 26 32 33 43 52 49 48 52 55 49
42 33 25 30 30 32 35 32 27 26 28 26 23 26 25 22 27 28 10 5 2 12 9 9 25 30 17 25 23 29 40 53 40 18 12 17 40 16 7 10 29 26 37 47 47 56 57 61 61 62 62 65 62 55
25 25 29 32 36 37 38 33 30 32 29 24 27 30 25 24 25 20 10 9 27 24 13 15 19 15 28 18 9 8 10 27 31 18 16 12 15 24 6 16 44 49 50 48 54 54 37 34 33 48 33 44 43 41
28 30 32 39 45 44 43 41 39 35 32 28 28 30 24 24 30 36 20 8 16 19 9 6 8 18 14 12 12 8 6 9 9 7 7 9 8 7 7 13 51 69 73 64 61 63 68 56 56 45 38 44 48 44
35 39 48 45 32 26 28 25 20 30 35 30 27 25 30 14 9 6 2 7 9 5 5 8 6 7 19 10 11 8 9 3 3 3 6 5 1 5 14 42 64 70 51 65 66 43 38 28 29 34 41 39 38 30
45 35 25 23 24 29 21 17 12 11 10 12 16 8 5 2 5 6 3 6 11 9 11 10 12 8 11 9 9 10 6 4 4 4 6 4 5 17 37 59 59 62 59 54 24 13 14 20 21 21 10 14 11 15
23 21 25 25 26 19 14 15 15 9 6 6 7 7 5 2 4 4 5 7 10 7 12 14 22 10 11 6 4 5 5 4 5 4 4 5 4 22 62 60 58 63 61 47 36 25 13 11 13 11 12 17 20 21
19 19 17 18 18 12 15 16 18 16 10 10 5 11 4 5 4 0 4 4 7 7 10 9 16 21 9 7 3 5 4 6 7 14 4 7 8 49 55 58 57 56 61 62 59 46 34 25 20 17 19 29 31 24
18 17 16 18 18 20 17 13 20 17 15 8 5 2 5 2 6 7 7 5 3 7 8 11 10 4 4 3 4 1 4 6 20 5 5 4 33 60 52 46 45 51 53 53 49 47 43 38 36 40 47 33 14 13
20 18 17 20 23 16 14 22 17 21 12 6 8 7 6 6 8 9 8 6 15 22 32 31 14 7 5 3 2 4 5 4 5 6 5 7 40 54 52 35 39 44 50 49 48 51 44 40 39 40 45 46 37 29
17 17 19 22 20 23 27 20 25 22 9 7 8 7 11 18 15 7 24 24 37 43 31 12 8 9 4 3 3 4 8 4 4 4 4 35 56 44 32 46 31 32 42 47 45 39 41 44 43 44 50 41 45 46
12 15 4 3 14 24 25 18 24 17 6 6 10 8 16 5 15 18 26 40 30 18 6 6 3 1 2 2 1 3 2 5 5 4 32 43 42 38 34 22 36 29 31 39 42 41 36 37 39 39 33 38 44 54
9 7 4 4 18 23 20 14 8 10 8 8 12 24 33 30 28 39 26 37 19 8 2 1 2 1 2 2 2 2 3 3 19 34 33 38 43 36 28 21 14 16 21 25 32 39 43 45 37 29 31 32 31 32
10 12 5 8 22 27 27 17 8 7 11 18 14 17 21 30 37 40 24 17 12 7 8 4 3 3 1 1 4 3 9 21 23 25 35 35 25 25 15 16 10 9 15 19 20 21 25 32 40 38 32 27 26 29
9 9 8 12 23 20 13 10 10 7 21 16 24 34 29 30 33 26 16 16 12 6 4 5 3 2 3 4 7 22 17 17 30 32 29 25 15 19 22 10 15 12 15 14 12 16 13 19 27 30 27 25 33 38
10 8 12 18 21 11 7 8 12 10 9 6 15 17 14 18 21 15 15 8 10 4 1 1 2 5 9 18 22 21 16 20 23 24 23 28 26 18 20 19 14 11 10 17 9 9 4 4 12 16 21 23 31 36
12 9 15 12 5 12 8 7 13 9 11 10 19 18 12 10 8 5 7 13 5 1 3 6 14 13 8 6 8 10 12 13 12 14 18 22 19 12 8 14 13 6 10 14 17 17 13 8 8 8 15 27 31 33
12 18 8 8 7 6 11 10 8 7 8 12 14 8 9 5 5 6 12 5 6 3 3 8 10 9 6 3 8 8 6 1 4 9 12 4 14 16 12 14 6 12 11 15 16 21 22 17 14 19 24 30 29 31
23 16 6 8 7 7 11 9 8 6 3 6 6 4 4 4 3 10 4 5 5 1 4 6 11 6 12 22 22 21 6 5 3 7 9 8 11 14 15 17 12 5 7 11 17 21 25 29 28 28 34 37 34 28
16 9 5 6 11 8 7 7 8 7 6 4 3 5 2 4 7 3 3 7 7 2 5 4 11 11 19 19 25 29 25 17 15 8 6 9 11 8 9 12 9 4 1 4 5 13 20 27 26 29 29 30 24 27
8 7 6 9 10 7 6 6 7 4 6 7 5 2 5 3 3 4 6 13 21 10 7 5 10 13 17 14 8 19 21 17 6 5 6 8 18 17 14 9 4 5 5 4 6 19 15 21 18 19 21 20 25 24
7 9 14 8 6 7 6 4 8 11 5 4 3 2 5 3 3 4 5 21 25 16 18 11 11 8 5 9 8 10 16 21 16 11 12 17 25 31 31 18 8 9 4 7 13 17 15 21 20 26 29 29 26 24
5 8 14 13 10 9 8 11 10 3 5 3 5 2 4 5 5 3 9 15 16 17 20 9 4 6 8 10 6 6 12 16 16 19 13 15 22 37 36 20 17 13 9 10 14 17 22 21 21 20 22 21 19 26
10 8 7 2 5 9 5 6 4 4 4 4 15 3 3 3 6 5 5 10 10 25 21 16 10 4 8 5 3 7 17 23 20 13 7 8 17 29 39 25 18 17 13 20 24 23 19 19 20 20 16 22 37 23
9 10 7 13 10 9 12 10 6 5 0 1 4 6 9 3 4 6 11 15 23 19 15 14 10 4 3 4 7 6 5 29 22 17 15 14 11 20 27 31 26 20 22 24 21 23 28 26 28 28 24 24 20 18
11 15 6 7 7 8 8 13 8 4 4 3 8 8 8 8 8 10 13 19 18 16 12 9 6 7 6 5 8 11 16 22 21 16 13 15 9 10 10 15 23 25 27 30 27 25 25 27 29 29 24 22 18 16
7 14 10 9 7 10 15 8 8 10 4 4 5 6 11 10 13 8 14 15 16 11 9 8 3 11 10 9 4 2 4 1 7 10 7 7 8 6 1 3 10 16 24 23 21 22 19 16 16 18 16 14 15 18
12 17 10 5 8 8 6 8 9 8 8 6 4 5 5 5 6 14 23 24 22 15 9 10 11 10 5 4 3 6 9 12 12 9 11 9 10 14 6 4 12 13 13 13 13 13 12 11 11 11 13 14 16 20
18 20 14 7 5 4 9 9 6 4 5 6 7 9 7 9 5 7 22 21 18 16 12 8 9 6 4 8 4 3 4 3 6 11 15 13 15 14 10 7 3 10 19 19 14 12 11 9 8 13 21 18 16 12
Wind_Direction_850mb
291 288 291 294 295 298 303 305 306 307 310 315 318 325 333 326 309 266 283 283 284 269 278 271 266 263 261 252 257 278 335 262 41 114 163 248 206 241 238 214 204 190 218 211 225 223 276 221 183 189 215 165 292 284
287 284 287 290 291 296 300 300 301 302 305 308 321 327 329 319 319 277 275 295 300 278 272 285 281 267 255 248 241 222 238 257 246 82 329 255 299 271 232 271 225 255 208 219 193 217 239 222 236 254 286 298 301 289
283 282 285 288 291 296 296 296 299 298 300 300 312 323 318 320 315 282 282 294 293 290 300 284 276 306 280 250 254 244 250 235 247 256 260 227 242 216 247 237 240 242 235 236 265 227 247 260 264 259 260 269 281 279
279 278 281 284 293 295 293 295 301 301 299 298 303 306 302 310 310 292 292 296 298 288 277 286 302 283 290 265 248 251 251 239 244 238 229 232 236 208 242 252 249 249 223 235 249 265 272 265 257 262 267 270 269 267
275 277 277 288 297 297 297 295 292 296 295 291 297 295 297 300 310 297 302 297 278 244 288 295 306 347 274 281 251 252 250 245 239 229 216 242 239 250 238 246 261 253 252 249 258 259 257 264 268 272 265 265 265 264
274 273 285 295 297 285 285 290 279 279 282 290 297 301 295 295 303 312 321 208 73 29 274 302 302 302 328 318 277 251 240 244 222 211 243 242 247 230 253 252 272 284 272 265 269 271 277 274 274 276 270 267 268 263
263 278 281 288 278 280 283 275 269 274 280 281 290 290 286 288 282 271 266 291 303 311 331 299 304 290 332 342 323 296 256 213 210 209 215 242 250 205 245 265 297 306 304 287 269 260 256 255 267 296 282 261 266 256
270 274 280 273 277 279 281 276 264 264 268 272 278 291 292 288 278 280 297 270 250 262 225 276 276 308 351 315 319 305 225 234 228 251 253 244 268 234 272 307 319 311 309 301 282 264 260 263 278 260 269 273 268 248
284 277 275 277 283 282 284 285 292 271 267 264 270 290 294 277 241 88 116 301 238 213 231 241 274 272 334 314 299 317 353 283 266 248 252 274 280 254 298 317 315 316 307 310 309 297 262 253 253 266 281 262 255 242
276 274 278 277 281 276 286 269 258 282 283 239 266 270 246 239 216 306 308 194 197 228 224 242 240 268 320 335 307 317 333 298 285 256 265 235 259 275 319 325 325 326 336 345 333 327 282 274 258 267 262 226 200 188
277 282 276 272 277 292 261 271 248 263 218 216 194 221 200 209 273 210 219 212 195 243 226 241 230 241 271 243 272 331 328 303 292 316 312 317 303 330 335 341 350 1 17 34 26 24 353 312 258 236 252 249 261 242
278 276 281 290 280 273 270 269 217 208 184 194 207 288 276 205 180 27 261 269 222 239 221 212 255 221 251 243 279 334 308 349 269 341 292 343 318 341 352 356 11 26 33 38 46 52 49 36 18 358 315 274 247 228
276 270 278 286 288 262 255 233 196 196 203 233 237 253 219 151 42 206 217 249 273 252 238 299 295 232 187 239 261 306 305 249 312 334 18 303 317 348 1 13 30 31 39 44 41 43 53 59 59 56 49 55 108 193
273 275 272 275 285 241 206 176 190 180 175 172 176 214 213 208 235 201 201 219 253 253 275 291 267 219 210 200 207 261 261 269 352 10 333 294 327 348 3 11 22 22 28 33 42 47 53 51 52 50 60 71 78 85
274 277 287 282 257 197 181 196 185 177 175 194 221 231 220 229 247 243 271 261 270 273 277 270 233 181 199 236 221 279 352 13 31 302 272 307 330 347 0 14 10 18 29 33 35 40 48 48 53 59 58 69 72 83
281 297 211 320 185 182 184 178 181 171 205 229 235 258 248 273 276 267 260 264 300 276 239 230 276 235 217 238 134 18 29 236 258 246 308 320 329 343 349 1 33 37 45 41 37 41 46 46 50 56 66 65 68 69
275 272 245 217 177 182 194 199 141 188 214 234 249 246 259 279 280 285 300 303 295 256 197 201 335 279 249 258 137 205 237 257 291 313 321 320 328 340 331 340 346 33 55 55 50 47 50 49 50 58 67 70 76 82
251 225 210 112 167 174 178 191 191 224 242 242 248 262 249 260 272 281 290 305 259 247 160 214 136 3 160 242 270 235 283 308 323 327 324 336 349 11 340 342 321 352 32 38 46 47 38 40 46 49 55 68 87 94
220 197 200 171 170 168 181 202 215 257 236 249 260 268 276 279 287 286 257 268 263 261 191 196 121 228 237 257 297 304 300 310 323 339 356 10 359 353 350 326 14 355 329 326 332 355 8 32 43 44 56 78 92 103
214 228 181 194 186 183 226 213 207 249 261 262 274 270 255 267 292 278 243 232 230 220 177 0 171 245 267 280 279 265 294 315 327 340 15 30 19 45 53 61 40 357 15 15 40 28 355 12 38 51 57 87 103 105
214 215 181 191 187 215 276 246 212 244 280 262 281 289 279 265 253 225 176 176 181 95 163 225 271 278 282 245 258 278 292 313 305 296 327 350 9 2 3 14 349 50 52 57 60 54 33 46 53 87 97 111 103 109
173 161 182 229 205 246 263 244 240 259 255 267 290 242 263 271 237 168 165 145 131 140 254 265 271 289 208 291 28 39 42 0 303 341 349 45 31 29 20 1 0 10 39 51 50 43 52 48 56 128 124 120 107 110
163 174 181 197 209 238 265 230 240 246 230 261 285 265 255 256 197 164 112 103 117 233 264 339 59 193 55 104 82 44 4 170 74 40 39 13 1 5 11 8 345 313 24 81 57 50 66 65 90 110 125 121 112 105
163 183 214 217 217 261 255 233 224 252 255 267 247 262 228 260 171 193 126 139 164 151 329 73 96 88 78 105 56 49 56 102 111 89 57 9 344 344 6 15 8 348 258 183 65 80 78 84 98 114 119 122 111 110
202 221 201 248 221 243 237 220 215 220 243 219 218 232 317 313 180 206 187 181 175 192 198 153 121 97 97 110 61 57 71 70 84 130 31 349 16 28 355 343 39 348 165 154 61 135 110 103 109 124 94 132 143 118
236 209 192 221 225 201 245 256 205 213 222 243 112 98 276 266 246 214 196 182 188 185 156 147 137 125 95 78 126 109 99 92 89 99 65 56 43 22 12 21 57 68 110 45 91 140 129 124 114 106 108 104 122 123
271 254 225 235 257 279 285 280 262 213 249 200 111 224 225 215 226 221 154 176 195 186 172 141 118 325 287 246 209 152 131 142 126 103 78 56 44 27 25 63 69 56 76 97 119 122 129 133 134 128 115 114 125 127
249 273 219 299 255 253 246 289 273 252 251 159 139 54 342 298 230 152 167 173 175 162 164 166 173 61 49 126 147 159 163 157 154 150 160 81 58 41 38 55 38 52 98 112 117 123 129 140 148 141 123 118 130 120
243 246 236 273 262 244 219 217 252 254 19 36 128 145 202 231 163 164 160 158 168 173 178 182 187 163 88 126 68 95 164 183 179 163 153 136 91 59 46 44 50 74 117 125 117 99 92 105 130 140 131 122 116 122
245 229 237 260 202 221 236 212 257 209 170 129 139 141 159 147 139 146 168 170 175 164 158 159 185 200 181 145 85 94 106 135 154 174 144 146 124 72 61 60 51 83 111 124 117 114 108 112 126 131 127 127 125 117
262 185 224 241 268 273 252 226 208 173 150 143 142 174 168 167 175 198 195 190 178 169 173 182 191 172 184 201 204 46 52 280 203 199 197 173 185 164 80 82 119 99 108 120 123 126 126 122 139 159 163 147 134 133
203 212 208 235 249 221 236 230 220 214 179 194 182 162 161 203 236 214 197 199 201 206 192 189 195 184 177 176 240 308 287 249 245 252 235 241 208 187 177 119 189 179 149 114 132 132 131 126 127 129 149 149 145 140
211 221 223 269 255 242 201 174 173 169 185 199 216 217 184 183 236 185 182 191 195 192 197 213 204 224 307 323 294 325 338 300 219 214 199 186 177 183 180 164 177 214 217 212 185 153 146 147 141 132 135 146 151 148